| time (UTC) | temp F | wind direction | speed MPH | gust MPH | rain 1hr in | rain 24hr in | rain mn in | humidity % | barometer mb |
| 20260507180034 | 68 | 293 | 5.0 | 14.0 | 0.00 | 0.00 | 0.00 | 33 | 1020.3 |
| 20260507174536 | 67 | 270 | 3.0 | 10.0 | 0.00 | 0.00 | 0.00 | 35 | 1020.4 |
| 20260507173034 | 66 | 335 | 4.0 | 13.0 | 0.00 | 0.00 | 0.00 | 40 | 1020.4 |
| 20260507171539 | 65 | 15 | 6.0 | 13.0 | 0.00 | 0.00 | 0.00 | 43 | 1020.4 |
| 20260507170035 | 64 | 7 | 5.0 | 11.0 | 0.00 | 0.00 | 0.00 | 40 | 1020.3 |
| 20260507163110 | 62 | 332 | 6.0 | 12.0 | 0.00 | 0.00 | 0.00 | 44 | 1020.3 |
| 20260507160036 | 62 | 358 | 3.0 | 7.0 | 0.00 | 0.00 | 0.00 | 47 | 1020.4 |
| 20260507153035 | 61 | 56 | 3.0 | 6.0 | 0.00 | 0.00 | 0.00 | 56 | 1020.7 |
| 20260507151536 | 60 | 75 | 1.0 | 4.0 | 0.00 | 0.00 | 0.00 | 60 | 1020.8 |
| 20260507144534 | 55 | 82 | 5.0 | 10.0 | 0.00 | 0.00 | 0.00 | 67 | 1020.9 |
| 20260507143036 | 54 | 87 | 4.0 | 9.0 | 0.00 | 0.00 | 0.00 | 70 | 1020.9 |
| 20260507141534 | 52 | 141 | 3.0 | 7.0 | 0.00 | 0.00 | 0.00 | 75 | 1020.7 |
| 20260507140032 | 51 | 179 | 1.0 | 4.0 | 0.00 | 0.00 | 0.00 | 73 | 1020.6 |
| 20260507134537 | 52 | 164 | 1.0 | 4.0 | 0.00 | 0.00 | 0.00 | 71 | 1020.5 |
| 20260507133151 | 52 | 308 | 3.0 | 8.0 | 0.00 | 0.00 | 0.00 | 71 | 1020.4 |
| 20260507131536 | 52 | 307 | 4.0 | 13.0 | 0.00 | 0.00 | 0.00 | 71 | 1020.4 |
| 20260507130035 | 52 | 295 | 5.0 | 13.0 | 0.00 | 0.00 | 0.00 | 72 | 1020.4 |
| 20260507123030 | 53 | 292 | 5.0 | 12.0 | 0.00 | 0.00 | 0.00 | 72 | 1020.4 |
| 20260507121536 | 53 | 247 | 5.0 | 15.0 | 0.00 | 0.00 | 0.00 | 72 | 1020.4 |
| 20260507120035 | 52 | 211 | 5.0 | 15.0 | 0.00 | 0.00 | 0.00 | 74 | 1020.4 |
| 20260507114606 | 52 | 187 | 3.0 | 8.0 | 0.00 | 0.00 | 0.00 | 74 | 1020.3 |
| 20260507113033 | 52 | 163 | 3.0 | 11.0 | 0.00 | 0.00 | 0.00 | 74 | 1020.3 |
| 20260507111535 | 52 | 137 | 3.0 | 8.0 | 0.00 | 0.00 | 0.00 | 75 | 1020.3 |
| 20260507110035 | 52 | 192 | 3.0 | 8.0 | 0.00 | 0.00 | 0.00 | 75 | 1020.3 |
| 20260507104651 | 53 | 190 | 1.0 | 12.0 | 0.00 | 0.00 | 0.00 | 73 | 1020.4 |
| 20260507103035 | 54 | 291 | 1.0 | 5.0 | 0.00 | 0.00 | 0.00 | 72 | 1020.5 |
| 20260507101536 | 54 | 321 | 5.0 | 15.0 | 0.00 | 0.00 | 0.00 | 72 | 1020.7 |
| 20260507100045 | 54 | 347 | 5.0 | 12.0 | 0.00 | 0.00 | 0.00 | 72 | 1020.6 |
| 20260507093035 | 54 | 97 | 2.0 | 10.0 | 0.00 | 0.00 | 0.00 | 72 | 1020.6 |
| 20260507090034 | 54 | 154 | 2.0 | 9.0 | 0.00 | 0.00 | 0.00 | 71 | 1020.8 |
| 20260507084535 | 54 | 182 | 4.0 | 11.0 | 0.00 | 0.00 | 0.00 | 71 | 1021.0 |
| 20260507083037 | 55 | 245 | 3.0 | 9.0 | 0.00 | 0.00 | 0.00 | 72 | 1021.2 |
| 20260507081605 | 55 | 251 | 4.0 | 15.0 | 0.00 | 0.00 | 0.00 | 72 | 1021.2 |
| 20260507080036 | 55 | 256 | 5.0 | 13.0 | 0.00 | 0.00 | 0.00 | 73 | 1021.2 |
| 20260507074537 | 55 | 257 | 4.0 | 15.0 | 0.00 | 0.00 | 0.00 | 73 | 1021.3 |
| 20260507073037 | 54 | 271 | 3.0 | 12.0 | 0.00 | 0.00 | 0.00 | 74 | 1021.2 |
| 20260507071608 | 53 | 208 | 2.0 | 18.0 | 0.00 | 0.00 | 0.00 | 76 | 1021.2 |
| 20260507070034 | 54 | 99 | 2.0 | 5.0 | 0.00 | 0.00 | 0.00 | 75 | 1021.1 |
| 20260507063036 | 54 | 165 | 1.0 | 5.0 | 0.00 | 0.00 | 0.00 | 74 | 1021.3 |
| 20260507061535 | 56 | 290 | 2.0 | 5.0 | 0.00 | 0.00 | 0.00 | 72 | 1021.4 |
| 20260507054535 | 57 | 348 | 2.0 | 7.0 | 0.00 | 0.00 | 0.00 | 70 | 1021.6 |
| 20260507053036 | 57 | 342 | 3.0 | 10.0 | 0.00 | 0.00 | 0.00 | 70 | 1021.6 |
| 20260507051535 | 57 | 343 | 1.0 | 6.0 | 0.00 | 0.00 | 0.00 | 70 | 1021.7 |
| 20260507050036 | 57 | 43 | 2.0 | 7.0 | 0.00 | 0.00 | 0.00 | 70 | 1021.7 |
| 20260507044535 | 56 | 57 | 3.0 | 11.0 | 0.00 | 0.00 | 0.00 | 68 | 1021.4 |
| 20260507041536 | 57 | 72 | 3.0 | 7.0 | 0.00 | 0.00 | 0.00 | 65 | 1021.3 |
| 20260507034534 | 59 | 110 | 3.0 | 12.0 | 0.00 | 0.00 | 0.00 | 62 | 1021.3 |
| 20260507033108 | 60 | 333 | 3.0 | 12.0 | 0.00 | 0.00 | 0.00 | 61 | 1021.2 |
| 20260507030038 | 61 | 36 | 2.0 | 8.0 | 0.00 | 0.00 | 0.00 | 59 | 1021.3 |
| 20260507024535 | 62 | 328 | 4.0 | 15.0 | 0.00 | 0.00 | 0.00 | 57 | 1021.3 |
| 20260507021537 | 64 | 248 | 6.0 | 21.0 | 0.00 | 0.00 | 0.00 | 54 | 1021.3 |
| 20260507020110 | 65 | 285 | 7.0 | 14.0 | 0.00 | 0.00 | 0.00 | 52 | 1021.2 |
| 20260507014533 | 67 | 265 | 6.0 | 18.0 | 0.00 | 0.00 | 0.00 | 50 | 1021.1 |
| 20260507013033 | 68 | 254 | 5.0 | 14.0 | 0.00 | 0.00 | 0.00 | 49 | 1021.0 |
| 20260507011535 | 68 | 280 | 5.0 | 18.0 | 0.00 | 0.00 | 0.00 | 47 | 1021.1 |
| 20260507004532 | 68 | 298 | 5.0 | 13.0 | 0.00 | 0.00 | 0.00 | 44 | 1020.8 |
| 20260507003033 | 70 | 273 | 6.0 | 16.0 | 0.00 | 0.00 | 0.00 | 43 | 1020.8 |
| 20260507001536 | 71 | 264 | 5.0 | 14.0 | 0.00 | 0.00 | 0.00 | 42 | 1020.7 |
| 20260507000036 | 71 | 268 | 7.0 | 22.0 | 0.00 | 0.00 | 0.00 | 41 | 1020.5 |
| 20260506234537 | 71 | 273 | 6.0 | 15.0 | 0.00 | 0.00 | 0.00 | 40 | 1020.5 |
| 20260506233036 | 72 | 275 | 7.0 | 17.0 | 0.00 | 0.00 | 0.00 | 39 | 1020.4 |
| 20260506231536 | 72 | 272 | 6.0 | 20.0 | 0.00 | 0.00 | 0.00 | 39 | 1020.4 |
| 20260506230037 | 73 | 284 | 7.0 | 19.0 | 0.00 | 0.00 | 0.00 | 39 | 1020.3 |
| 20260506221611 | 73 | 267 | 8.0 | 20.0 | 0.00 | 0.00 | 0.00 | 42 | 1020.6 |
| 20260506220108 | 73 | 284 | 5.0 | 18.0 | 0.00 | 0.00 | 0.00 | 42 | 1020.5 |
| 20260506214537 | 73 | 301 | 6.0 | 19.0 | 0.00 | 0.00 | 0.00 | 42 | 1020.4 |
| 20260506213036 | 73 | 298 | 5.0 | 18.0 | 0.00 | 0.00 | 0.00 | 43 | 1020.4 |
| 20260506211534 | 72 | 271 | 5.0 | 18.0 | 0.00 | 0.00 | 0.00 | 44 | 1020.4 |
| 20260506210145 | 72 | 272 | 7.0 | 21.0 | 0.00 | 0.00 | 0.00 | 45 | 1020.4 |
| 20260506203036 | 72 | 281 | 4.0 | 9.0 | 0.00 | 0.00 | 0.00 | 46 | 1020.6 |
| 20260506200034 | 72 | 309 | 7.0 | 15.0 | 0.00 | 0.00 | 0.00 | 45 | 1020.6 |
| 20260506194537 | 72 | 251 | 6.0 | 17.0 | 0.00 | 0.00 | 0.00 | 47 | 1020.6 |
| 20260506193035 | 71 | 253 | 8.0 | 21.0 | 0.00 | 0.00 | 0.00 | 48 | 1020.8 |
| 20260506191536 | 72 | 277 | 6.0 | 20.0 | 0.00 | 0.00 | 0.00 | 50 | 1020.8 |
| 20260506184536 | 71 | 336 | 6.0 | 14.0 | 0.00 | 0.00 | 0.00 | 49 | 1020.6 |
| 20260506183034 | 71 | 354 | 3.0 | 10.0 | 0.00 | 0.00 | 0.00 | 51 | 1020.6 |
| 20260506181608 | 69 | 270 | 6.0 | 14.0 | 0.00 | 0.00 | 0.00 | 54 | 1020.8 |